This is the latest recevied weather packets stored in our database for station/object KA6UPU-1. If no packets are shown the sender has not sent any weather packets the latest 1 day(s).
| Time | Temp. | Humidity | Pressure | Rain* | Wind** | Luminosity | Snow |
|---|---|---|---|---|---|---|---|
| 1778009626 | 16.11° C | 77% | 1015.6 hPa | 0 mm | 0 m/s | - | - |
| 1778009326 | 16.11° C | 77% | 1015.5 hPa | 0 mm | 0.45 m/s, 303° | - | - |
| 1778009026 | 16.11° C | 77% | 1015.6 hPa | 0 mm | 0.89 m/s, 319° | - | - |
| 1778008726 | 16.11° C | 77% | 1015.6 hPa | 0 mm | 0 m/s | - | - |
| 1778008426 | 16.11° C | 77% | 1015.6 hPa | 0 mm | 0.45 m/s, 315° | - | - |
| 1778008126 | 16.11° C | 77% | 1015.6 hPa | 0 mm | 0 m/s | - | - |
| 1778007826 | 16.11° C | 78% | 1015.6 hPa | 0 mm | 0.45 m/s, 297° | - | - |
| 1778007526 | 15.56° C | 79% | 1015.5 hPa | 0 mm | 0.45 m/s, 301° | - | - |
| 1778007226 | 15.56° C | 80% | 1015.5 hPa | 0 mm | 0 m/s | - | - |
| 1778006926 | 15° C | 80% | 1015.5 hPa | 0 mm | 0.45 m/s, 26° | - | - |
| 1778006326 | 15° C | 82% | 1015.5 hPa | 0 mm | 0.45 m/s, 335° | - | - |
| 1778006026 | 15° C | 82% | 1015.5 hPa | 0 mm | 0 m/s | - | - |
| 1778005726 | 14.44° C | 82% | 1015.5 hPa | 0 mm | 1.34 m/s, 296° | - | - |
| 1778005427 | 14.44° C | 83% | 1015.4 hPa | 0 mm | 0 m/s | - | - |
| 1778004526 | 14.44° C | 83% | 1015.5 hPa | 0 mm | 0 m/s | - | - |
| 1778004227 | 14.44° C | 84% | 1015.5 hPa | 0 mm | 0.45 m/s, 19° | - | - |
| 1778003926 | 14.44° C | 86% | 1015.5 hPa | 0 mm | 1.34 m/s, 310° | - | - |
| 1778003626 | 13.89° C | 86% | 1015.4 hPa | 0 mm | 0.89 m/s, 307° | - | - |
| 1778003326 | 13.89° C | 87% | 1015.3 hPa | 0 mm | 0 m/s | - | - |
| 1778003026 | 13.89° C | 89% | 1015.3 hPa | 0 mm | 0.45 m/s, 292° | - | - |
| 1778002726 | 13.89° C | 90% | 1015.2 hPa | 0 mm | 0.45 m/s, 306° | - | - |
| 1778002426 | 13.33° C | 91% | 1015.2 hPa | 0 mm | 0 m/s | - | - |
| 1778001826 | 13.33° C | 92% | 1015.2 hPa | 0 mm | 0 m/s | - | - |
| 1778001526 | 13.33° C | 93% | 1015.1 hPa | 0 mm | 0.45 m/s, 286° | - | - |
| 1778001226 | 12.78° C | 94% | 1015.1 hPa | 0 mm | 0.45 m/s, 343° | - | - |
* Rain latest hour (hover to see other rain measurements)
** Current wind speed in m/s (hover to see current wind gust speed)